www.pogodaiklimat.ru

ПОГОДА в Санфорде, NC

  • Прогноз погоды в Санфорде
  • Монитор погоды в Санфорде
  • Климат в Санфорде

АРХИВ ПОГОДЫ в Санфорде

Время (UTC), дата Ветер
(напр.,м/с)
 
Видим.   Явления Облачность Т
(С)
Тd
(С)
f
(%)
Тe
(С)
Тes
(С)
Комфортность

P
(гПа)

Po
(гПа)
Тmin
(С)
Tmax
(С)
R
(мм)
SD
(см)
23:00 24.06   16 км    5/0 2100 м
[средняя] 
+30.2  +23.3  67  +41  +41  опасность
перегрева 
  1001.1         
23:20 24.06   16 км    5/0 2100 м
[средняя] 
+29.0  +22.2  67  +38  +38  очень
душно 
  1001.4         
23:40 24.06 Ю  16 км    5/5 1800 м
[средняя] 
+28.8  +21.6  65  +37  +37  очень
душно 
  1001.4         
00:00 25.06 Ю  16 км    5/5 1800 м  +29.2  +21.4  63  +37  +37  очень
душно 
  1001.4         
00:20 25.06 Ю  16 км    5/5 1800 м  +28.4  +21.5  66  +36  +36  очень
душно 
  1001.4         
00:40 25.06 Ю  16 км    5/5 1800 м  +27.9  +21.5  68  +36  +36  очень
душно 
  1002.1         
01:00 25.06 Ю  16 км    5/5 1800 м
[средняя] 
+28.4  +21.6  67  +36  +36  очень
душно 
  1002.1         
01:20 25.06 Ю  16 км    5/5 1800 м
[средняя] 
+28.5  +21.4  65  +36  +36  очень
душно 
  1002.1         
01:40 25.06 Ю  16 км    5/5 1950 м  +28.0  +21.5  68  +36  +36  очень
душно 
  1002.4         
02:00 25.06 Ю  16 км    ясно  +28.0  +21.5  68  +36  +36  очень
душно 
  1002.4         
02:20 25.06 Ю  16 км    ясно  +27.6  +21.5  69  +35  +35  очень
душно 
  1002.4         
02:40 25.06 ЮЗ  16 км    ясно  +27.6  +21.5  69  +35  +35  очень
душно 
  1002.4         
03:00 25.06 ЮЗ  4
{9} 
16 км    5/5 1500 м  +27.7  +21.1  67  +35  +35  очень
душно 
  1002.8         
08:00 25.06   16 км    ясно  +21.6  +20.6  94  +27  +27  душно    1002.8         
08:20 25.06 ЮЗ  16 км    ясно  +21.2  +20.5  96  +26  +26  душно    1003.1         
08:40 25.06 З  16 км    ясно  +21.1  +20.5  96  +26  +26  душно    1003.1         
09:00 25.06 З  16 км    ясно  +21.2  +20.6  96  +26  +26  душно    1003.4         
09:20 25.06 ЮЗ  16 км    ясно  +21.2  +20.6  96  +26  +26  душно    1003.8         
09:40 25.06 З  16 км    ясно  +21.2  +20.6  96  +26  +26  душно    1003.8         
10:00 25.06 З  16 км    ясно  +21.5  +20.7  95  +27  +28  душно    1004.1         
10:20 25.06 З  16 км    ясно  +22.0  +20.8  93  +28  +29  душно    1004.4         
10:40 25.06 З  16 км    ясно  +22.6  +20.5  88  +29  +30  очень
душно 
  1004.8         
11:00 25.06 З  16 км    ясно  +23.4  +20.1  82  +31  +33  очень
душно 
  1004.8         
11:20 25.06 З  16 км    ясно  +24.1  +19.8  77  +29  +32  душно    1004.8         
11:40 25.06 З  16 км    ясно  +24.7  +19.6  73  +30  +32  очень
душно 
  1005.5         
12:00 25.06 СЗ  16 км    ясно  +25.4  +19.0  68  +30  +34  душно    1005.5         
12:20 25.06 СЗ  16 км    ясно  +26.0  +18.6  64  +31  +35  очень
душно 
  1005.5         
12:40 25.06 СЗ  16 км    ясно  +26.3  +18.8  63  +31  +34  душно    1005.8         
13:00 25.06 СЗ  16 км    ясно  +26.7  +18.5  61  +32  +38  очень
душно 
  1005.5         
13:20 25.06 З  16 км    ясно  +28.8  +18.7  54  +34  +41  очень
душно 
  1005.8         
13:40 25.06 СЗ  16 км    ясно  +29.8  +19.1  53  +35  +44  очень
душно 
  1005.8         
14:00 25.06 СЗ  16 км    ясно  +29.3  +18.8  53  +34  +49  очень
душно 
  1005.8         
14:20 25.06 СЗ  16 км    ясно  +30.1  +18.4  50  +35  +44  очень
душно 
  1005.8         
14:40 25.06 СЗ  16 км    ясно  +30.1  +18.0  48  +35  +45  очень
душно 
  1005.8         
15:00 25.06 СЗ  16 км    ясно  +30.5  +17.7  46  +35  +45  очень
душно 
  1005.8         
15:20 25.06 СЗ  16 км    ясно  +30.7  +18.0  47  +35  +47  очень
душно 
  1005.8         
15:40 25.06 СЗ  16 км    5/5 1500 м  +30.7  +17.3  45  +35  +42  очень
душно 
  1005.8         
16:00 25.06 СЗ  16 км    н/о  +31.2  +17.6  44  +35  +35  очень
душно 
  1005.8         
16:20 25.06 СЗ  4
{7} 
16 км    н/о  +31.2  +17.4  44  +35  +35  очень
душно 
  1005.8         
16:40 25.06 СЗ  16 км    н/о  +30.8  +17.8  46  +35  +35  очень
душно 
  1005.8         
17:00 25.06 З  16 км    н/о  +31.4  +18.4  46  +36  +36  очень
душно 
  1005.5         
17:20 25.06 З  16 км    н/о  +31.9  +18.0  44  +36  +36  очень
душно 
  1005.5         
17:40 25.06 СЗ  16 км    ясно  +32.4  +18.1  43  +37  +50  очень
душно 
  1005.5         
18:00 25.06 СЗ  16 км    5/5 1650 м  +31.8  +17.9  44  +36  +42  очень
душно 
  1005.5         
18:20 25.06 СЗ  2
{8} 
16 км    ясно  +31.3  +17.3  43  +35  +51  опасность
солнечного
удара 
  1005.5         
18:40 25.06 СЗ  16 км    5/5 1800 м
[средняя] 
+31.2  +17.7  45  +35  +44  очень
душно 
  1005.1         
19:00 25.06 СЗ  16 км    5/5 1800 м
[средняя] 
+31.4  +17.3  43  +35  +41  очень
душно 
  1005.1         
19:20 25.06 СЗ  16 км    5/5 1800 м
[средняя] 
+31.6  +17.7  44  +36  +41  очень
душно 
  1005.1         

 

Местоположение метеостанции Sanford-Lee County Regional Airport: широта 35.5825 долгота -79.1014 высота над уровнем моря 75 м.

В архиве по умолчанию представлена погода в Санфорде за последние 1-2 суток. Обновление информации о фактической погоде в базе происходит ежечасно! Архивные данные за месяц целиком и за предыдущие месяцы Вы можете получить, выбрав интересующий диапазон дат из раскрывающегося списка и нажав кнопку "Ввод!".

Внимание! Архив погоды МЕТАР в базе сайта хранится не более 60 дней. Нет смысла пытаться выбрать более раннюю дату.

Внимание! Время в таблицах - всемирное. Для получения местного времени необходимо прибавить поправку, которая в Санфорде равна -5 ч.

Ветер - указаны скорость ветра в м/с и направление, откуда дует ветер: С - северный, СВ - северо-восточный, В - восточный, ЮВ - юго-восточный, Ю - южный, ЮЗ - юго-западный, З - западный, СЗ - северо-западный.
Видимость - горизонтальная дальность видимости в метрах или километрах. При видимости от 1 до 10 км при отсутствии осадков обычно наблюдается дымка, при ухудшении видимости до 1 км и менее - туман. В сухую погоду видимость может ухудшаться дымом, пылью или мглою.
Атмосферные явления - указаны явления, наблюдавшиеся в указанный момент времени.
Облачность - указаны через наклонную черту верхняя и нижняя облачность в баллах и высота нижней границы облаков в метрах. Внимание: облачность, как и прочие метеорологические величины в США измеряются автоматическими метеостанциями. Указанные значения в баллах носят условный характер и показывают процент времени, в течение которого, в среднем, лазерный луч высотомера отражался от облаков обратно.
T - Температура воздуха - температура, измеренная на высоте 2 м над землей.
Td - Температура точки росы - температура, при понижении до которой содержащийся в воздухе водяной пар достигнет насыщения.
f - Относительная влажность воздуха - влажноcть воздуха, измеренная на высоте 2 м над землей.
Te - Эффективная температура - температура, которую ощущает одетый по сезону человек в тени. Характеристика душности погоды. При расчете учитывается влияние влажности воздуха и скорости ветра на теплоощущения человека.
Tes - Эффективная температура на солнце - температура, которую ощущает человек, с поправкой на солнечный нагрев. Характеристика знойности погоды. Зависит от высоты солнца над горизонтом, облачности и скорости ветра. Ночью, в пасмурную погоду, а также при ветре 12 м/с и более поправка равна нулю.
P - Атмосферное давление - приведенное к уровню моря атмосферное давление.
Po - Атмосферное давление - измеренное на уровне метеостанции атмосферное давление.
Tmin - Минимальная температура - минимум температуры воздуха на высоте 2 м над землей.
Tmax - Максимальная температура - максимум температуры воздуха на высоте 2 м над землей.
R - Количество осадков - Количество выпавших осадков за 3 или 6 часов, мм.
SD - Снежный покров - Высота снежного покрова, см.